When you browse on this site, cookies collect data to enhance your experience and personalize the content and advertising you see.
Visit our Privacy Policy to learn more. By continuing to use the site, you agree to this use of cookies and data.
  • In Romania
  • List of Countries
  • For 7 days
  • Water Temperature
  • Weather Map
  • Weather Widgets
  • user-avatar
    Login

    Hourly Weather Caracas

    Today, 15 December, Sunday

    Time Temperature Precipitation Wind Pressure Humidity
    00:00 +17°C° 0 mm 2 mps 649 mmHg 95%
    01:00 +17°C° 0 mm 2 mps 648 mmHg 94%
    02:00 +17°C° 0 mm 2 mps 648 mmHg 94%
    03:00 +17°C° 0 mm 2 mps 648 mmHg 94%
    04:00 +17°C° 0 mm 2 mps 648 mmHg 94%
    05:00 +16°C° 0 mm 2 mps 648 mmHg 94%
    06:00 +17°C° 0 mm 2 mps 648 mmHg 93%
    07:00 +18°C° 0 mm 2 mps 649 mmHg 92%
    08:00 +18°C° 0 mm 2 mps 650 mmHg 89%
    09:00 +20°C° 0.1 mm 2 mps 650 mmHg 83%
    10:00 +21°C° 0.1 mm 2 mps 651 mmHg 77%
    11:00 +24°C° 0.1 mm 2 mps 651 mmHg 72%
    12:00 +24°C° 0.5 mm 3 mps 651 mmHg 74%
    13:00 +22°C° 0.5 mm 3 mps 650 mmHg 77%
    14:00 +22°C° 0.5 mm 3 mps 649 mmHg 80%
    15:00 +21°C° 0.6 mm 3 mps 649 mmHg 84%
    16:00 +21°C° 0.6 mm 3 mps 648 mmHg 88%
    17:00 +20°C° 0.6 mm 3 mps 648 mmHg 92%
    18:00 +19°C° 0.2 mm 3 mps 648 mmHg 93%
    19:00 +19°C° 0.2 mm 3 mps 649 mmHg 95%
    20:00 +18°C° 0.2 mm 3 mps 649 mmHg 96%
    21:00 +18°C° 0.2 mm 2 mps 649 mmHg 96%
    22:00 +17°C° 0.2 mm 2 mps 649 mmHg 96%
    23:00 +17°C° 0.2 mm 2 mps 649 mmHg 95%

    Tomorrow, 16 December, Monday

    Time Temperature Precipitation Wind Pressure Humidity
    00:00 +17°C° 0 mm 2 mps 649 mmHg 95%
    01:00 +17°C° 0 mm 2 mps 649 mmHg 95%
    02:00 +17°C° 0 mm 2 mps 648 mmHg 96%
    03:00 +17°C° 0 mm 2 mps 648 mmHg 95%
    04:00 +17°C° 0 mm 2 mps 648 mmHg 95%
    05:00 +16°C° 0 mm 2 mps 648 mmHg 95%
    06:00 +17°C° 0 mm 2 mps 648 mmHg 95%
    07:00 +17°C° 0 mm 2 mps 649 mmHg 94%
    08:00 +18°C° 0 mm 2 mps 649 mmHg 93%
    09:00 +19°C° 0.1 mm 2 mps 650 mmHg 87%
    10:00 +21°C° 0.1 mm 3 mps 650 mmHg 82%
    11:00 +22°C° 0.1 mm 3 mps 651 mmHg 76%
    12:00 +22°C° 0.5 mm 3 mps 650 mmHg 77%
    13:00 +22°C° 0.5 mm 3 mps 649 mmHg 77%
    14:00 +22°C° 0.5 mm 3 mps 649 mmHg 78%
    15:00 +21°C° 0.3 mm 3 mps 648 mmHg 81%
    16:00 +21°C° 0.3 mm 3 mps 648 mmHg 83%
    17:00 +20°C° 0.3 mm 3 mps 647 mmHg 85%
    18:00 +19°C° 0.1 mm 3 mps 647 mmHg 88%
    19:00 +18°C° 0.1 mm 2 mps 647 mmHg 90%
    20:00 +17°C° 0.1 mm 2 mps 647 mmHg 93%
    21:00 +17°C° 0 mm 2 mps 648 mmHg 93%
    22:00 +17°C° 0 mm 3 mps 648 mmHg 94%
    23:00 +16°C° 0 mm 3 mps 648 mmHg 94%

    Day after tomorrow, 17 December, Tuesday

    Time Temperature Precipitation Wind Pressure Humidity
    00:00 +16°C° 0 mm 3 mps 648 mmHg 94%
    01:00 +16°C° 0 mm 3 mps 648 mmHg 94%
    02:00 +16°C° 0 mm 2 mps 647 mmHg 94%
    03:00 +16°C° 0 mm 2 mps 647 mmHg 94%
    04:00 +16°C° 0 mm 2 mps 647 mmHg 93%
    05:00 +16°C° 0 mm 2 mps 647 mmHg 93%
    06:00 +17°C° 0 mm 2 mps 647 mmHg 93%
    07:00 +17°C° 0 mm 2 mps 648 mmHg 92%
    08:00 +18°C° 0 mm 2 mps 648 mmHg 91%
    09:00 +19°C° 0 mm 2 mps 649 mmHg 83%
    10:00 +21°C° 0 mm 3 mps 649 mmHg 74%
    11:00 +24°C° 0 mm 3 mps 650 mmHg 66%
    12:00 +24°C° 0 mm 3 mps 649 mmHg 65%
    13:00 +24°C° 0 mm 3 mps 649 mmHg 65%
    14:00 +25°C° 0 mm 3 mps 648 mmHg 64%
    15:00 +24°C° 0.2 mm 3 mps 647 mmHg 69%
    16:00 +22°C° 0.2 mm 3 mps 647 mmHg 74%
    17:00 +21°C° 0.2 mm 3 mps 646 mmHg 80%
    18:00 +20°C° 0.1 mm 3 mps 646 mmHg 84%
    19:00 +18°C° 0.1 mm 3 mps 646 mmHg 89%
    20:00 +17°C° 0.1 mm 3 mps 646 mmHg 94%
    21:00 +17°C° 0 mm 3 mps 647 mmHg 94%
    22:00 +17°C° 0 mm 2 mps 647 mmHg 95%
    23:00 +17°C° 0 mm 2 mps 647 mmHg 95%

    18 December, Wednesday

    Time Temperature Precipitation Wind Pressure Humidity
    00:00 +17°C° 0 mm 2 mps 647 mmHg 95%
    01:00 +16°C° 0 mm 2 mps 647 mmHg 95%
    02:00 +16°C° 0 mm 3 mps 647 mmHg 95%
    03:00 +16°C° 0 mm 2 mps 647 mmHg 94%
    04:00 +16°C° 0 mm 2 mps 646 mmHg 94%
    05:00 +16°C° 0 mm 2 mps 646 mmHg 93%
    06:00 +16°C° 0 mm 2 mps 647 mmHg 92%
    07:00 +17°C° 0 mm 2 mps 647 mmHg 91%
    08:00 +17°C° 0 mm 2 mps 648 mmHg 90%
    09:00 +19°C° 0 mm 2 mps 649 mmHg 80%
    10:00 +21°C° 0 mm 2 mps 649 mmHg 71%
    11:00 +24°C° 0 mm 3 mps 650 mmHg 61%
    12:00 +24°C° 0 mm 3 mps 650 mmHg 60%
    13:00 +25°C° 0 mm 3 mps 649 mmHg 60%
    14:00 +25°C° 0 mm 4 mps 649 mmHg 59%
    15:00 +24°C° 0 mm 3 mps 648 mmHg 64%
    16:00 +22°C° 0 mm 3 mps 647 mmHg 69%
    17:00 +21°C° 0 mm 3 mps 647 mmHg 75%
    18:00 +20°C° 0 mm 3 mps 647 mmHg 80%
    19:00 +18°C° 0 mm 3 mps 647 mmHg 86%
    20:00 +17°C° 0 mm 3 mps 647 mmHg 91%
    21:00 +17°C° 0 mm 3 mps 647 mmHg 91%
    22:00 +16°C° 0 mm 2 mps 647 mmHg 91%
    23:00 +16°C° 0 mm 2 mps 647 mmHg 91%

    19 December, Thursday

    Time Temperature Precipitation Wind Pressure Humidity
    00:00 +16°C° 0 mm 2 mps 647 mmHg 92%
    01:00 +16°C° 0 mm 2 mps 647 mmHg 92%
    02:00 +16°C° 0 mm 2 mps 647 mmHg 93%
    03:00 +16°C° 0 mm 2 mps 647 mmHg 93%
    04:00 +16°C° 0 mm 2 mps 647 mmHg 94%
    05:00 +16°C° 0 mm 2 mps 647 mmHg 94%
    06:00 +16°C° 0 mm 2 mps 647 mmHg 91%
    07:00 +17°C° 0 mm 2 mps 648 mmHg 88%
    08:00 +17°C° 0 mm 2 mps 649 mmHg 86%
    09:00 +19°C° 0 mm 2 mps 649 mmHg 77%
    10:00 +21°C° 0 mm 2 mps 650 mmHg 69%
    11:00 +24°C° 0 mm 3 mps 650 mmHg 60%
    12:00 +24°C° 0 mm 3 mps 650 mmHg 60%
    13:00 +24°C° 0 mm 3 mps 649 mmHg 60%
    14:00 +25°C° 0 mm 3 mps 649 mmHg 60%
    15:00 +24°C° 0.1 mm 3 mps 648 mmHg 64%
    16:00 +22°C° 0.1 mm 3 mps 648 mmHg 69%
    17:00 +21°C° 0.1 mm 3 mps 647 mmHg 74%
    18:00 +20°C° 0 mm 3 mps 647 mmHg 80%
    19:00 +18°C° 0 mm 2 mps 648 mmHg 86%
    20:00 +17°C° 0 mm 2 mps 648 mmHg 92%
    21:00 +17°C° 0 mm 2 mps 648 mmHg 92%
    22:00 +16°C° 0 mm 2 mps 648 mmHg 93%
    23:00 +16°C° 0 mm 2 mps 648 mmHg 93%

    20 December, Friday

    Time Temperature Precipitation Wind Pressure Humidity
    00:00 +16°C° 0 mm 2 mps 648 mmHg 93%
    01:00 +16°C° 0 mm 2 mps 648 mmHg 93%
    02:00 +16°C° 0 mm 2 mps 648 mmHg 93%
    03:00 +16°C° 0 mm 2 mps 648 mmHg 92%
    04:00 +16°C° 0 mm 2 mps 647 mmHg 92%
    05:00 +15°C° 0 mm 2 mps 647 mmHg 91%
    06:00 +16°C° 0 mm 2 mps 648 mmHg 89%
    07:00 +17°C° 0 mm 2 mps 649 mmHg 86%
    08:00 +19°C° 0 mm 1 mps 649 mmHg 84%
    09:00 +20°C° 0 mm 2 mps 650 mmHg 78%
    10:00 +21°C° 0 mm 2 mps 650 mmHg 71%
    11:00 +24°C° 0 mm 3 mps 651 mmHg 65%
    12:00 +24°C° 0.4 mm 3 mps 650 mmHg 68%
    13:00 +24°C° 0.4 mm 3 mps 649 mmHg 71%
    14:00 +24°C° 0.4 mm 3 mps 649 mmHg 74%
    15:00 +22°C° 0.4 mm 3 mps 648 mmHg 78%
    16:00 +21°C° 0.4 mm 3 mps 648 mmHg 82%
    17:00 +21°C° 0.4 mm 3 mps 647 mmHg 85%
    18:00 +20°C° 0.2 mm 3 mps 647 mmHg 89%
    19:00 +19°C° 0.2 mm 3 mps 647 mmHg 92%
    20:00 +18°C° 0.2 mm 2 mps 648 mmHg 95%
    21:00 +17°C° 0 mm 2 mps 648 mmHg 95%
    22:00 +17°C° 0 mm 2 mps 648 mmHg 95%
    23:00 +17°C° 0 mm 2 mps 648 mmHg 95%
    Show more